Terminal Aerodrome Forecast
Issued by NWS Columbia, SC

Home | Current Version | Previous Version | Text Only | Print | Product List | Glossary On
Versions: 1 2 3 4 5 6 7 8 9 10 11 12 13 14 15 16 17 18 19 20 21 22 23 24 25 26 27 28 29 30 31 32 33 34 35 36 37 38 39 40 41 42 43 44 45 46 47 48
000
FTAK31 PAJN 031100
TAFAGS
TAF
PAGS 031139Z 0312/0412 VRB05KT P6SM VCFG SKC
     FM031500 14006KT P6SM SCT100
     FM032100 24008KT P6SM SCT150
     FM040300 VRB06KT P6SM SCT150
      AMD LTD TO CLD VIS AND WIND=

USA.gov is the U.S. government's official web portal to all federal, state and local government web resources and services.